Fort Polk, LA

1:20 AM CST on February 23, 2017 (GMT -0600)
Polk Army Air Field

Weather History for KPOE - December, 2012

Change the Weather History Date:

Saturday, December 8, 2012

  Actual Average Record
Temperature  
Mean Temperature 68 °F -  
Max Temperature 73 °F 59 °F 80 °F (2007)
Min Temperature 62 °F 41 °F 24 °F (2006)
Cooling Degree Days 2    
Growing Degree Days 18 (Base 50)    
Moisture  
Dew Point 63 °F    
Average Humidity 90    
Maximum Humidity 100    
Minimum Humidity 71    
Precipitation  
Precipitation 0.81 in - - ()
Sea Level Pressure  
Sea Level Pressure 29.91 in    
Wind  
Wind Speed 6 mph (SSE)    
Max Wind Speed 12 mph    
Max Gust Speed -    
Visibility 8 miles    
Events Rain , Thunderstorm    
Averages and records for this station are not official NWS values.
T = Trace of Precipitation, MM = Missing Value Source: NWS Daily Summary

Daily Weather History Graph

Daily Weather History Graph

Search for Another Location

Airport or City:

Trip Planner

Search our weather history database for the weather conditions in past years. The results will help you decide how hot, cold, wet, or windy it might be!

Date:

Astronomy

Dec. 08, 2012 Rise Set
Actual Time 6:59 AM CST 5:10 PM CST
Civil Twilight 6:32 AM CST 5:37 PM CST
Nautical Twilight 6:02 AM CST 6:07 PM CST
Astronomical Twilight 5:33 AM CST 6:36 PM CST
Moon 1:41 AM CST (12/8) 1:26 PM CST (12/8)
Length of Visible Light 11h 04m
Length of Day
10h 11m
Waning Crescent, 28% of the Moon is Illuminated
Dec 8
Waning Crescent
Dec 13
New
Dec 19
First Quarter
Dec 28
Full
Jan 4
Last Quarter

Hourly Weather History & Observations

Time (CST) Temp. Dew Point Humidity Pressure Visibility Wind Dir Wind Speed Gust Speed Precip Events Conditions
12:55 AM 63.0 °F 60.1 °F 90% 29.90 in 10.0 mi SSE 4.6 mph - N/A   Overcast
1:55 AM 63.0 °F 60.1 °F 90% 29.90 in 10.0 mi South 5.8 mph - N/A   Overcast
2:38 AM 64.4 °F 60.8 °F 88% 29.89 in 10.0 mi SSE 5.8 mph - N/A   Overcast
2:55 AM 63.0 °F 60.1 °F 90% 29.90 in 10.0 mi SSE 4.6 mph - N/A   Overcast
3:55 AM 63.0 °F 60.1 °F 90% 29.90 in 10.0 mi SSE 4.6 mph - N/A   Overcast
4:02 AM 62.6 °F 60.8 °F 94% 29.89 in 10.0 mi SSE 4.6 mph - N/A   Overcast
4:14 AM 62.6 °F 60.8 °F 94% 29.89 in 10.0 mi SSE 5.8 mph - N/A   Mostly Cloudy
4:40 AM 62.6 °F 60.8 °F 94% 29.90 in 10.0 mi SSE 3.5 mph - N/A   Overcast
4:53 AM 62.6 °F 60.8 °F 94% 29.90 in 10.0 mi SSE 3.5 mph - N/A   Overcast
4:55 AM 63.0 °F 60.1 °F 90% 29.90 in 10.0 mi SSE 4.6 mph - N/A   Overcast
5:45 AM 62.6 °F 60.8 °F 94% 29.91 in 10.0 mi SE 4.6 mph - N/A   Mostly Cloudy
5:55 AM 63.0 °F 60.1 °F 90% 29.91 in 10.0 mi SE 5.8 mph - N/A   Overcast
6:16 AM 62.6 °F 60.8 °F 94% 29.92 in 6.0 mi SSE 5.8 mph - 0.04 in Rain Light Rain
6:37 AM 62.6 °F 62.6 °F 100% 29.93 in 1.5 mi South 8.1 mph - 0.27 in Rain Heavy Rain
6:39 AM 62.6 °F 62.6 °F 100% 29.93 in 1.0 mi South 9.2 mph - 0.42 in Rain Heavy Rain
6:42 AM 62.6 °F 62.6 °F 100% 29.92 in 0.8 mi SSE 8.1 mph - 0.55 in Rain Heavy Rain
6:48 AM 64.4 °F 62.6 °F 94% 29.92 in 1.2 mi ESE 6.9 mph - 0.60 in Rain Heavy Rain
6:51 AM 64.4 °F 62.6 °F 94% 29.93 in 2.0 mi ESE 6.9 mph - 0.63 in Rain Rain
6:55 AM 64.0 °F 63.0 °F 96% 29.93 in 2.5 mi ESE 4.6 mph - 0.70 in Rain Heavy Rain
7:01 AM 64.4 °F 62.6 °F 94% 29.93 in 3.0 mi Calm Calm - 0.01 in Rain Rain
7:06 AM 64.4 °F 62.6 °F 94% 29.93 in 5.0 mi Calm Calm - 0.02 in Rain , Thunderstorm Thunderstorms and Rain
7:13 AM 64.4 °F 62.6 °F 94% 29.93 in 6.0 mi SE 4.6 mph - 0.02 in Rain , Thunderstorm Light Thunderstorms and Rain
7:30 AM 64.4 °F 62.6 °F 94% 29.93 in 10.0 mi SE 4.6 mph - 0.03 in   Overcast
7:55 AM 64.0 °F 62.1 °F 93% 29.94 in 10.0 mi SSE 5.8 mph - 0.03 in   Overcast
8:38 AM 64.4 °F 62.6 °F 94% 29.94 in 10.0 mi SE 4.6 mph - N/A   Mostly Cloudy
8:55 AM 64.9 °F 63.0 °F 93% 29.95 in 10.0 mi SE 5.8 mph - N/A   Partly Cloudy
9:55 AM 70.0 °F 64.0 °F 81% 29.96 in 10.0 mi South 5.8 mph - N/A   Clear
10:55 AM 72.0 °F 64.0 °F 76% 29.94 in 10.0 mi South 8.1 mph - N/A   Clear
11:37 AM 73.4 °F 64.4 °F 73% 29.92 in 10.0 mi South 6.9 mph - N/A   Mostly Cloudy
11:55 AM 73.9 °F 64.0 °F 71% 29.91 in 10.0 mi South 9.2 mph - N/A   Overcast
12:30 PM 73.4 °F 64.4 °F 73% 29.89 in 10.0 mi South 10.4 mph - N/A   Mostly Cloudy
12:55 PM 73.9 °F 64.0 °F 71% 29.88 in 10.0 mi South 8.1 mph - N/A   Overcast
1:26 PM 73.4 °F 64.4 °F 73% 29.87 in 10.0 mi South 10.4 mph - N/A   Overcast
1:36 PM 73.4 °F 64.4 °F 73% 29.87 in 10.0 mi South 11.5 mph - N/A Thunderstorm Thunderstorm
1:55 PM 73.0 °F 64.0 °F 73% 29.87 in 10.0 mi South 8.1 mph - 0.00 in Rain , Thunderstorm Light Thunderstorms and Rain
2:43 PM 71.6 °F 66.2 °F 83% 29.87 in 10.0 mi South 5.8 mph - 0.01 in   Mostly Cloudy
2:55 PM 71.1 °F 64.9 °F 81% 29.87 in 10.0 mi South 8.1 mph - 0.01 in   Mostly Cloudy
3:14 PM 69.8 °F 66.2 °F 88% 29.87 in 2.5 mi WSW 4.6 mph - 0.03 in Rain Light Rain
3:24 PM 69.8 °F 66.2 °F 88% 29.87 in 10.0 mi West 3.5 mph - 0.03 in Rain Light Rain
3:55 PM 69.1 °F 66.9 °F 93% 29.88 in 7.0 mi SSW 4.6 mph - 0.04 in Rain Light Rain
4:16 PM 69.8 °F 66.2 °F 88% 29.87 in 10.0 mi Calm Calm - 0.01 in Rain Light Rain
4:55 PM 69.1 °F 66.0 °F 90% 29.88 in 6.0 mi South 4.6 mph - 0.03 in Rain Light Rain
5:55 PM 66.0 °F 63.0 °F 90% 29.89 in 10.0 mi SE 6.9 mph - 0.00 in   Mostly Cloudy
6:48 PM 64.4 °F 62.6 °F 94% 29.90 in 10.0 mi SSE 4.6 mph - N/A   Overcast
6:55 PM 64.9 °F 64.0 °F 97% 29.91 in 10.0 mi SSE 3.5 mph - N/A   Overcast
7:36 PM 66.2 °F 64.4 °F 94% 29.90 in 10.0 mi SSE 6.9 mph - N/A   Mostly Cloudy
7:55 PM 66.0 °F 64.0 °F 93% 29.91 in 10.0 mi SSE 8.1 mph - N/A   Mostly Cloudy
8:13 PM 66.2 °F 64.4 °F 94% 29.91 in 10.0 mi SSE 6.9 mph - N/A   Mostly Cloudy
8:43 PM 66.2 °F 64.4 °F 94% 29.91 in 10.0 mi SSE 6.9 mph - N/A   Partly Cloudy
8:55 PM 66.0 °F 64.0 °F 93% 29.91 in 10.0 mi SSE 8.1 mph - N/A   Partly Cloudy
9:24 PM 66.2 °F 62.6 °F 88% 29.91 in 10.0 mi SSE 10.4 mph - N/A   Mostly Cloudy
9:46 PM 66.2 °F 62.6 °F 88% 29.91 in 10.0 mi South 9.2 mph - N/A   Scattered Clouds
9:55 PM 66.0 °F 63.0 °F 90% 29.92 in 10.0 mi SSE 8.1 mph - N/A   Partly Cloudy
10:55 PM 64.0 °F 63.0 °F 96% 29.93 in 10.0 mi South 6.9 mph - N/A   Clear
11:29 PM 64.4 °F 62.6 °F 94% 29.92 in 10.0 mi South 3.5 mph - N/A   Partly Cloudy
11:44 PM 64.4 °F 62.6 °F 94% 29.92 in 10.0 mi South 6.9 mph - N/A   Mostly Cloudy
11:55 PM 64.0 °F 63.0 °F 96% 29.92 in 10.0 mi South 6.9 mph - N/A   Overcast